Time,TemperatureF,DewpointF,PressureIn,WindDirection,WindDirectionDegrees,WindSpeedMPH,WindSpeedGustMPH,Humidity,HourlyPrecipIn,Conditions,Clouds,dailyrainin,SoftwareType,DateUTC
2013-03-07 00:01:00,31.0,28.7,30.25,North,360,8.0,21.0,91,0.00,,,0.00,Weather View 32 v70,2013-03-07 05:01:00,
2013-03-07 00:30:00,31.0,28.7,30.24,NE,45,11.0,23.0,91,0.00,,,0.00,Weather View 32 v70,2013-03-07 05:30:00,
2013-03-07 00:31:00,31.0,28.7,30.24,NE,45,11.0,23.0,91,0.00,,,0.00,Weather View 32 v70,2013-03-07 05:31:00,
2013-03-07 01:02:00,31.0,28.7,30.26,ENE,67,16.0,23.0,91,0.00,,,0.00,Weather View 32 v70,2013-03-07 06:02:00,
2013-03-07 03:00:00,31.0,29.7,30.22,NE,45,14.0,20.0,95,0.00,,,0.00,Weather View 32 v70,2013-03-07 08:00:00,
2013-03-07 03:30:00,31.0,30.0,30.21,North,360,7.0,27.0,96,0.00,,,0.00,Weather View 32 v70,2013-03-07 08:30:00,
2013-03-07 03:31:00,31.0,30.0,30.21,North,360,7.0,27.0,96,0.00,,,0.00,Weather View 32 v70,2013-03-07 08:31:00,
2013-03-07 04:00:00,31.0,30.2,30.19,North,360,13.0,27.0,97,0.00,,,0.00,Weather View 32 v70,2013-03-07 09:00:00,
2013-03-07 04:30:00,31.0,29.7,30.19,NE,45,12.0,27.0,95,0.00,,,0.00,Weather View 32 v70,2013-03-07 09:30:00,
2013-03-07 04:34:00,31.0,29.7,30.19,NE,45,12.0,27.0,95,0.00,,,0.00,Weather View 32 v70,2013-03-07 09:34:00,
2013-03-07 05:04:00,31.0,29.7,30.20,NNW,337,10.0,22.0,95,0.00,,,0.00,Weather View 32 v70,2013-03-07 10:04:00,
2013-03-07 06:02:00,31.0,29.7,30.22,North,360,6.0,21.0,95,0.00,,,0.00,Weather View 32 v70,2013-03-07 11:02:00,
2013-03-07 06:33:00,31.0,29.7,30.23,NNE,22,22.0,22.0,95,0.00,,,0.00,Weather View 32 v70,2013-03-07 11:33:00,
2013-03-07 07:01:00,31.0,29.5,30.22,NE,45,12.0,23.0,94,0.00,,,0.00,Weather View 32 v70,2013-03-07 12:01:00,
2013-03-07 07:31:00,31.0,28.9,30.22,NNE,22,16.0,28.0,92,0.00,,,0.00,Weather View 32 v70,2013-03-07 12:31:00,
2013-03-07 08:02:00,32.0,29.7,30.22,NW,315,5.0,28.0,91,0.00,,,0.00,Weather View 32 v70,2013-03-07 13:02:00,
2013-03-07 08:31:00,32.0,29.7,30.23,NE,45,13.0,28.0,91,0.00,,,0.00,Weather View 32 v70,2013-03-07 13:31:00,
2013-03-07 09:02:00,32.0,28.8,30.21,NE,45,15.0,29.0,88,0.00,,,0.00,Weather View 32 v70,2013-03-07 14:02:00,
2013-03-07 09:31:00,33.0,29.3,30.21,North,360,13.0,29.0,86,0.00,,,0.00,Weather View 32 v70,2013-03-07 14:31:00,
2013-03-07 10:02:00,33.0,27.8,30.21,NNW,337,13.0,28.0,81,0.00,,,0.00,Weather View 32 v70,2013-03-07 15:02:00,
2013-03-07 10:31:00,33.0,27.5,30.21,NE,45,14.0,26.0,80,0.00,,,0.00,Weather View 32 v70,2013-03-07 15:31:00,
2013-03-07 11:01:00,34.0,26.9,30.21,NE,45,14.0,27.0,75,0.00,,,0.00,Weather View 32 v70,2013-03-07 16:01:00,
2013-03-07 11:07:00,34.0,26.9,30.21,NE,45,14.0,27.0,75,0.00,,,0.00,Weather View 32 v70,2013-03-07 16:07:00,
2013-03-07 12:00:00,34.0,24.9,30.19,North,360,13.0,26.0,69,0.00,,,0.00,Weather View 32 v70,2013-03-07 17:00:00,
2013-03-07 12:01:00,34.0,24.9,30.19,North,360,13.0,26.0,69,0.00,,,0.00,Weather View 32 v70,2013-03-07 17:01:00,
2013-03-07 12:31:00,35.0,25.5,30.17,NNE,22,4.0,24.0,68,0.00,,,0.00,Weather View 32 v70,2013-03-07 17:31:00,
2013-03-07 13:00:00,35.0,24.8,30.15,ENE,67,22.0,28.0,66,0.00,,,0.00,Weather View 32 v70,2013-03-07 18:00:00,
2013-03-07 13:01:00,35.0,24.8,30.15,ENE,67,22.0,28.0,66,0.00,,,0.00,Weather View 32 v70,2013-03-07 18:01:00,
2013-03-07 13:31:00,36.0,25.4,30.15,NE,45,22.0,29.0,65,0.00,,,0.00,Weather View 32 v70,2013-03-07 18:31:00,
2013-03-07 14:00:00,37.0,25.9,30.15,North,360,13.0,29.0,64,0.00,,,0.00,Weather View 32 v70,2013-03-07 19:00:00,
2013-03-07 14:01:00,37.0,25.9,30.15,North,360,13.0,29.0,64,0.00,,,0.00,Weather View 32 v70,2013-03-07 19:01:00,
2013-03-07 14:30:00,37.0,25.6,30.14,North,360,11.0,27.0,63,0.00,,,0.00,Weather View 32 v70,2013-03-07 19:30:00,
2013-03-07 15:00:00,37.0,25.2,30.13,NNE,22,12.0,27.0,62,0.00,,,0.00,Weather View 32 v70,2013-03-07 20:00:00,
2013-03-07 15:30:00,37.0,25.9,30.13,NNE,22,11.0,25.0,64,0.00,,,0.00,Weather View 32 v70,2013-03-07 20:30:00,
2013-03-07 16:01:00,36.0,25.4,30.13,NNE,22,13.0,23.0,65,0.00,,,0.00,Weather View 32 v70,2013-03-07 21:01:00,
2013-03-07 16:32:00,36.0,25.7,30.14,NE,45,9.0,28.0,66,0.00,,,0.00,Weather View 32 v70,2013-03-07 21:32:00,
2013-03-07 17:02:00,36.0,25.7,30.14,NE,45,15.0,28.0,66,0.00,,,0.00,Weather View 32 v70,2013-03-07 22:02:00,
2013-03-07 17:31:00,36.0,26.1,30.15,ENE,67,11.0,26.0,67,0.00,,,0.00,Weather View 32 v70,2013-03-07 22:31:00,
2013-03-07 17:37:00,36.0,26.1,30.15,ENE,67,11.0,26.0,67,0.00,,,0.00,Weather View 32 v70,2013-03-07 22:37:00,
2013-03-07 18:01:00,35.0,26.5,30.16,NNE,22,13.0,26.0,71,0.00,,,0.00,Weather View 32 v70,2013-03-07 23:01:00,
2013-03-07 18:30:00,34.0,26.3,30.17,NNE,22,13.0,26.0,73,0.00,,,0.00,Weather View 32 v70,2013-03-07 23:30:00,
2013-03-07 18:31:00,34.0,26.3,30.17,NNE,22,13.0,26.0,73,0.00,,,0.00,Weather View 32 v70,2013-03-07 23:31:00,
2013-03-07 19:01:00,34.0,27.9,30.16,North,360,7.0,24.0,78,0.00,,,0.00,Weather View 32 v70,2013-03-08 00:01:00,
2013-03-07 19:30:00,33.0,28.4,30.16,NNW,337,8.0,25.0,83,0.00,,,0.00,Weather View 32 v70,2013-03-08 00:30:00,
2013-03-07 19:31:00,33.0,28.4,30.16,NNW,337,8.0,25.0,83,0.00,,,0.00,Weather View 32 v70,2013-03-08 00:31:00,
2013-03-07 20:01:00,32.0,28.6,30.15,ENE,67,9.0,25.0,87,0.00,,,0.00,Weather View 32 v70,2013-03-08 01:01:00,
2013-03-07 20:30:00,32.0,28.8,30.15,North,360,9.0,23.0,88,0.00,,,0.00,Weather View 32 v70,2013-03-08 01:30:00,
2013-03-07 20:31:00,32.0,28.8,30.15,North,360,9.0,23.0,88,0.00,,,0.00,Weather View 32 v70,2013-03-08 01:31:00,
2013-03-07 21:00:00,32.0,29.7,30.15,NNE,22,8.0,22.0,91,0.00,,,0.00,Weather View 32 v70,2013-03-08 02:00:00,
2013-03-07 21:30:00,32.0,29.9,30.15,NNW,337,9.0,22.0,92,0.00,,,0.00,Weather View 32 v70,2013-03-08 02:30:00,
2013-03-07 21:31:00,32.0,29.9,30.15,NNW,337,9.0,22.0,92,0.00,,,0.00,Weather View 32 v70,2013-03-08 02:31:00,
2013-03-07 22:00:00,32.0,29.9,30.14,NNW,337,10.0,26.0,92,0.00,,,0.00,Weather View 32 v70,2013-03-08 03:00:00,
2013-03-07 22:31:00,32.0,29.9,30.14,NNW,337,9.0,26.0,92,0.00,,,0.00,Weather View 32 v70,2013-03-08 03:31:00,
2013-03-07 23:02:00,31.0,28.9,30.13,ENE,67,15.0,26.0,92,0.00,,,0.00,Weather View 32 v70,2013-03-08 04:02:00,
2013-03-07 23:31:00,31.0,29.2,30.12,NNE,22,15.0,23.0,93,0.00,,,0.00,Weather View 32 v70,2013-03-08 04:31:00,